Back to catalog

IUS R/B(2)

AliveGEO
NORAD 19913·ROCKET BODY·🇺🇸 United States

Launched Mar 13, 1989 from Cape Canaveral Space Force Station

Loading…

TLE

FreshSource: Space-Track

Epoch: Sep 14, 2026, 01:37 UTC

1 19913U 89021D   26257.06768338 -.00000261  00000-0  00000-0 0  9996
2 19913   8.5707 320.1572 0023361 197.4691 176.8227  1.00605898126553

Track IUS R/B(2) in real time with AllMySat

Download on the App Store